Regional Weather Roundup
Issued by NWS

Home | Current Version | Previous Version | Text Only | Print | Product List | Glossary On
Versions: 1 2 3 4 5 6 7 8 9 10 11 12 13 14 15 16 17 18 19 20 21 22 23 24 25 26 27 28 29 30 31 32 33 34 35 36 37 38 39 40 41 42 43 44 45 46 47 48 49 50
000
ASUS42 KKEY 301410
RWRKEY

FLORIDA REGIONAL WEATHER ROUNDUP FOR THE FLORIDA KEYS
NATIONAL WEATHER SERVICE KEY WEST FLORIDA
1000 AM EDT MON MAY 30 2016

...SOUTH FLORIDA AND THE KEYS...

CITY           SKY/WX    TMP DP  RH WIND       PRES   REMARKS
FORT MYERS     SUNNY     82  69  64 CALM      30.02S
SW REGIONAL AP SUNNY     82  70  66 VRB5      30.03S
NAPLES         MOSUNNY   83  70  64 VRB3      30.02S
MIAMI          PTSUNNY   83  71  67 S3        30.01F
WEST KENDALL   PTSUNNY   83  71  67 VRB5      30.01S
HOMESTEAD      SUNNY     84  72  66 NE6       30.01S HX  90
MARATHON       MOSUNNY   86  70  58 VRB5      30.01S HX  90
BOCA CHICA NAS MOSUNNY   85  72  65 E6        30.01R HX  91
KEY WEST INTL  MOSUNNY   85  73  67 E7        30.01S HX  91

...INTERNATIONAL WEATHER...

CITY           SKY/WX    TMP DP  RH WIND       PRES   REMARKS
NASSAU BAHAMAS MOSUNNY   86  73  66 NE6       30.02F HX  93
CANCUN MEXICO  MOSUNNY   86  75  70 NE10      29.97R HX  95
COZUMEL MEXICO MOSUNNY   82  75  78 E9        29.96R

ADJACENT COASTAL WATERS...

STATION/POSITION TIME  SKY/WX   TEMP    WIND        PRES    WAVE
                                AIR SEA DIR/SP/G            HT/PER
                 (UTC)          (F)     (DEG/KT/KT) (MB)    (FT/S)
PULASKI SHOAL LI 1400            82      60/  6/  6 1016.5R
SAND KEY         1350            81     150/  9/ 11 1016.6R
SOMBRERO KEY     NOT AVBL
LONG KEY         1300            82 85   CALM  /  1 1016.6R
MOLASSES REEF    1400            82 83   80/  6/  7 1016.7R
FOWEY ROCKS      1400            82 82   70/  4/  4 1016.9S

$$



USA.gov is the U.S. government's official web portal to all federal, state and local government web resources and services.